Kremmling, CO

7:11 AM MDT on May 25, 2017 (GMT -0600)
Kremmling

Weather History for K20V - May, 2013

Change the Weather History Date:

Wednesday, May 15, 2013

  Actual Average Record
Temperature  
Mean Temperature 57 °F -  
Max Temperature 73 °F - 78 °F (2012)
Min Temperature 41 °F - 28 °F (2012)
Degree Days  
Heating Degree Days 8    
Month to date heating degree days  
Cooling Degree Days 0    
Month to date cooling degree days  
Growing Degree Days 7 (Base 50)    
Moisture  
Dew Point 39 °F    
Average Humidity 62    
Maximum Humidity 87    
Minimum Humidity 18    
Precipitation  
Precipitation 0.09 in - 0.36 in (2016)
Sea Level Pressure  
Sea Level Pressure 30.16 in    
Wind  
Wind Speed 3 mph (SSW)    
Max Wind Speed 14 mph    
Max Gust Speed 22 mph    
Visibility 10 miles    
Events Rain , Thunderstorm    
T = Trace of Precipitation, MM = Missing Value Source: NWS Daily Summary

Daily Weather History Graph

Daily Weather History Graph

Search for Another Location

Airport or City:

Trip Planner

Search our weather history database for the weather conditions in past years. The results will help you decide how hot, cold, wet, or windy it might be!

Date:

Astronomy

May. 15, 2013 Rise Set
Actual Time 5:49 AM MDT 8:14 PM MDT
Civil Twilight 5:19 AM MDT 8:45 PM MDT
Nautical Twilight 4:41 AM MDT 9:23 PM MDT
Astronomical Twilight 3:59 AM MDT 10:05 PM MDT
Moon 10:28 AM MDT (5/15) 12:02 AM MDT (5/15)
Length of Visible Light 15h 26m
Length of Day
14h 24m
Waxing Crescent, 27% of the Moon is Illuminated
May 15
Waxing Crescent
May 17
First Quarter
May 24
Full
May 31
Last Quarter
Jun 8
New

Hourly Weather History & Observations

Time (MDT) Temp. Windchill Dew Point Humidity Pressure Visibility Wind Dir Wind Speed Gust Speed Precip Events Conditions
12:14 AM 50.0 °F - 37.4 °F 62% 30.21 in 10.0 mi Calm Calm - N/A   Scattered Clouds
12:35 AM 50.0 °F - 39.2 °F 66% 30.21 in 10.0 mi NNW 3.5 mph - N/A   Clear
12:55 AM 50.0 °F - 37.4 °F 62% 30.20 in 10.0 mi Calm Calm - N/A   Clear
1:15 AM 46.4 °F - 37.4 °F 71% 30.19 in 10.0 mi Calm Calm - N/A   Clear
1:35 AM 46.4 °F 43.5 °F 39.2 °F 76% 30.19 in 10.0 mi SE 5.8 mph - N/A   Clear
1:55 AM 50.0 °F - 39.2 °F 66% 30.18 in 10.0 mi Calm Calm - N/A   Clear
2:14 AM 46.4 °F - 39.2 °F 76% 30.18 in 10.0 mi Calm Calm - N/A   Scattered Clouds
2:35 AM 44.6 °F - 37.4 °F 76% 30.18 in 10.0 mi Calm Calm - N/A   Scattered Clouds
2:55 AM 44.6 °F 43.1 °F 37.4 °F 76% 30.18 in 10.0 mi East 3.5 mph - N/A   Clear
3:16 AM 44.6 °F - 37.4 °F 76% 30.18 in 10.0 mi Calm Calm - N/A   Clear
3:35 AM 42.8 °F - 37.4 °F 81% 30.18 in 10.0 mi Calm Calm - N/A   Clear
3:55 AM 42.8 °F - 37.4 °F 81% 30.18 in 10.0 mi Calm Calm - N/A   Clear
4:14 AM 41.0 °F - 35.6 °F 81% 30.18 in 10.0 mi Calm Calm - N/A   Clear
4:35 AM 41.0 °F 39.0 °F 35.6 °F 81% 30.19 in 10.0 mi WNW 3.5 mph - N/A   Scattered Clouds
4:55 AM 41.0 °F - 37.4 °F 87% 30.19 in 10.0 mi Calm Calm - N/A   Mostly Cloudy
5:14 AM 41.0 °F - 35.6 °F 81% 30.19 in 10.0 mi Calm Calm - N/A   Mostly Cloudy
5:34 AM 41.0 °F 39.0 °F 35.6 °F 81% 30.20 in 10.0 mi East 3.5 mph - N/A   Scattered Clouds
5:54 AM 41.0 °F - 35.6 °F 81% 30.20 in 10.0 mi Calm Calm - N/A   Clear
6:15 AM 41.0 °F - 37.4 °F 87% 30.21 in 10.0 mi Calm Calm - N/A   Clear
6:35 AM 42.8 °F - 37.4 °F 81% 30.21 in 10.0 mi Calm Calm - N/A   Clear
6:54 AM 42.8 °F - 37.4 °F 81% 30.22 in 10.0 mi Calm Calm - N/A   Clear
7:16 AM 44.6 °F - 37.4 °F 76% 30.22 in 10.0 mi Calm Calm - N/A   Scattered Clouds
7:35 AM 46.4 °F - 39.2 °F 76% 30.21 in 10.0 mi Calm Calm - N/A   Mostly Cloudy
7:55 AM 50.0 °F - 37.4 °F 62% 30.21 in 10.0 mi Calm Calm - N/A   Scattered Clouds
8:16 AM 50.0 °F - 35.6 °F 58% 30.21 in 10.0 mi Calm Calm - N/A   Clear
8:35 AM 51.8 °F - 37.4 °F 58% 30.20 in 10.0 mi Calm Calm - N/A   Clear
8:55 AM 53.6 °F - 37.4 °F 54% 30.20 in 10.0 mi Calm Calm - N/A   Mostly Cloudy
9:15 AM 53.6 °F - 37.4 °F 54% 30.20 in 10.0 mi Calm Calm - N/A   Mostly Cloudy
9:35 AM 55.4 °F - 37.4 °F 51% 30.19 in 10.0 mi NW 3.5 mph - N/A   Scattered Clouds
9:55 AM 55.4 °F - 37.4 °F 51% 30.19 in 10.0 mi Calm Calm - N/A   Clear
10:16 AM 59.0 °F - 37.4 °F 45% 30.18 in 10.0 mi WSW 4.6 mph - N/A   Scattered Clouds
10:35 AM 59.0 °F - 37.4 °F 45% 30.17 in 10.0 mi NNW 5.8 mph - N/A   Scattered Clouds
10:55 AM 60.8 °F - 37.4 °F 42% 30.17 in 10.0 mi NW 3.5 mph - N/A Thunderstorm Thunderstorm
11:15 AM 60.8 °F - 37.4 °F 42% 30.16 in 10.0 mi WNW 4.6 mph - N/A   Overcast
11:35 AM 64.4 °F - 35.6 °F 34% 30.14 in 10.0 mi Calm Calm - N/A Thunderstorm Mostly Cloudy
11:55 AM 66.2 °F - 35.6 °F 32% 30.12 in 10.0 mi NNW 3.5 mph - N/A   Clear
12:15 PM 69.8 °F - 33.8 °F 27% 30.11 in 10.0 mi WNW 4.6 mph - N/A   Clear
12:35 PM 71.6 °F - 32.0 °F 23% 30.10 in 10.0 mi Calm Calm - N/A   Clear
12:55 PM 73.4 °F - 30.2 °F 20% 30.08 in 10.0 mi Calm Calm - N/A   Clear
1:15 PM 73.4 °F - 26.6 °F 18% 30.08 in 10.0 mi SW 8.1 mph - N/A Thunderstorm Clear
1:36 PM 73.4 °F - 28.4 °F 19% 30.08 in 10.0 mi WNW 6.9 mph - N/A Thunderstorm Thunderstorm
1:55 PM 68.0 °F - 32.0 °F 26% 30.10 in 10.0 mi West 10.4 mph - N/A Thunderstorm Thunderstorm
2:15 PM 64.4 °F - 32.0 °F 30% 30.12 in 10.0 mi West 12.7 mph - N/A Thunderstorm Thunderstorm
2:34 PM 59.0 °F - 39.2 °F 48% 30.16 in 7.0 mi SE 12.7 mph 20.7 mph 0.04 in Rain , Thunderstorm Heavy Thunderstorms and Rain
2:55 PM 53.6 °F - 42.8 °F 67% 30.16 in 10.0 mi East 11.5 mph - 0.08 in Rain Light Rain
3:14 PM 53.6 °F - 44.6 °F 72% 30.16 in 10.0 mi ESE 13.8 mph - N/A Rain , Thunderstorm Light Thunderstorms and Rain
3:35 PM 51.8 °F - 41.0 °F 67% 30.16 in 10.0 mi SE 13.8 mph 20.7 mph N/A   Light Drizzle
3:55 PM 51.8 °F - 42.8 °F 71% 30.15 in 10.0 mi East 13.8 mph 19.6 mph N/A Rain Light Rain
4:15 PM 53.6 °F - 46.4 °F 77% 30.14 in 10.0 mi East 11.5 mph 18.4 mph N/A   Mostly Cloudy
4:35 PM 59.0 °F - 46.4 °F 63% 30.14 in 10.0 mi East 12.7 mph - N/A   Scattered Clouds
4:55 PM 55.4 °F - 44.6 °F 67% 30.14 in 10.0 mi ESE 6.9 mph - N/A   Mostly Cloudy
5:15 PM 55.4 °F - 42.8 °F 63% 30.15 in 10.0 mi Calm Calm - N/A   Overcast
5:35 PM 55.4 °F - 44.6 °F 67% 30.11 in 10.0 mi East 11.5 mph - N/A Rain Light Rain
5:55 PM 55.4 °F - 44.6 °F 67% 30.10 in 10.0 mi ESE 11.5 mph 18.4 mph N/A   Mostly Cloudy
6:16 PM 55.4 °F - 41.0 °F 58% 30.12 in 10.0 mi ENE 3.5 mph - N/A   Mostly Cloudy
6:35 PM 55.4 °F - 42.8 °F 63% 30.13 in 10.0 mi WNW 4.6 mph - N/A Thunderstorm Thunderstorm
6:55 PM 53.6 °F - 42.8 °F 67% 30.12 in 10.0 mi SSW 6.9 mph - N/A Rain , Thunderstorm Thunderstorms and Rain
7:15 PM 53.6 °F - 46.4 °F 77% 30.10 in 10.0 mi East 6.9 mph - 0.01 in Rain Light Rain
7:35 PM 53.6 °F - 42.8 °F 67% 30.10 in 10.0 mi WNW 4.6 mph - 0.01 in   Scattered Clouds
7:54 PM 53.6 °F - 42.8 °F 67% 30.11 in 10.0 mi Calm Calm - 0.01 in   Clear
8:16 PM 53.6 °F - 44.6 °F 72% 30.10 in 10.0 mi SE 3.5 mph - N/A   Clear
8:34 PM 51.8 °F - 42.8 °F 71% 30.10 in 10.0 mi South 3.5 mph - N/A   Clear
8:55 PM 51.8 °F - 41.0 °F 67% 30.11 in 10.0 mi SSW 5.8 mph - N/A   Clear
9:14 PM 51.8 °F - 39.2 °F 62% 30.12 in 10.0 mi South 6.9 mph 17.3 mph N/A Thunderstorm Thunderstorm
9:35 PM 51.8 °F - 39.2 °F 62% 30.12 in 10.0 mi South 3.5 mph - N/A   Scattered Clouds
9:54 PM 50.0 °F - 39.2 °F 66% 30.13 in 10.0 mi WSW 4.6 mph - N/A Thunderstorm Thunderstorm
10:16 PM 50.0 °F - 41.0 °F 71% 30.16 in 10.0 mi SSW 4.6 mph - N/A   Overcast
10:35 PM 51.8 °F - 39.2 °F 62% 30.16 in 10.0 mi West 8.1 mph - N/A   Overcast
10:55 PM 50.0 °F - 39.2 °F 66% 30.14 in 10.0 mi SSW 12.7 mph 18.4 mph N/A   Overcast
11:15 PM 51.8 °F - 39.2 °F 62% 30.14 in 10.0 mi Calm Calm - N/A   Overcast
11:35 PM 51.8 °F - 37.4 °F 58% 30.12 in 10.0 mi NNW 12.7 mph 21.9 mph N/A Rain Light Rain
11:54 PM 51.8 °F - 37.4 °F 58% 30.13 in 10.0 mi SSW 3.5 mph - N/A   Light Drizzle